Weather History for KGEZ - February, 2014

Change the Weather History Date:

Monday, February 17, 2014

  Actual Average Record
Temperature  
Mean Temperature 23 °F 32 °F  
Max Temperature 37 °F 40 °F - ()
Min Temperature 9 °F 24 °F - ()
Degree Days  
Heating Degree Days 42 33  
Month to date heating degree days 778 589  
Since 1 July heating degree days 4144 3818  
Cooling Degree Days 0 0  
Month to date cooling degree days 0 0  
Year to date cooling degree days 0 0  
Moisture  
Dew Point 23 °F    
Average Humidity 74    
Maximum Humidity 84    
Minimum Humidity 63    
Precipitation  
Precipitation 0.34 in 0.08 in - ()
Month to date precipitation 1.47 1.46  
Year to date precipitation 3.50 3.85  
Sea Level Pressure  
Sea Level Pressure 29.92 in    
Wind  
Wind Speed 14 mph (SSE)    
Max Wind Speed 30 mph    
Max Gust Speed 37 mph    
Visibility 5 miles    
Events Rain    
T = Trace of Precipitation, MM = Missing Value Source: NWS Daily Summary

Daily Weather History Graph

Daily Weather History Graph

Search for Another Location

Airport or City:

Trip Planner

Search our weather history database for the weather conditions in past years. The results will help you decide how hot, cold, wet, or windy it might be!

Date:

Astronomy

Feb. 17, 2014 Rise Set
Actual Time 7:32 AM EST 6:22 PM EST
Civil Twilight 7:05 AM EST 6:49 PM EST
Nautical Twilight 6:33 AM EST 7:21 PM EST
Astronomical Twilight 6:02 AM EST 7:52 PM EST
Moon 9:15 PM EST (2/17) 8:33 AM EST (2/17)
Length of Visible Light 11h 44m
Length of Day
10h 49m
Waning Gibbous, 93% of the Moon is Illuminated
Feb 17
Waning Gibbous
Feb 22
Last Quarter
Mar 1
New
Mar 8
First Quarter
Mar 16
Full

Hourly Weather History & Observations

Time (EST) Temp. Windchill Dew Point Humidity Pressure Visibility Wind Dir Wind Speed Gust Speed Precip Events Conditions
12:53 AM 12.0 °F 5.9 °F 8.1 °F 84% 30.32 in 6.0 mi South 3.5 mph - N/A   Clear
1:53 AM 15.1 °F 9.4 °F 10.9 °F 84% 30.32 in 6.0 mi East 3.5 mph - N/A   Clear
2:21 AM 10.9 °F 1.4 °F 8.1 °F 88% 30.28 in 2.5 mi ENE 5.8 mph - N/A   Clear
2:30 AM 10.9 °F -1.8 °F 7.0 °F 84% 30.27 in 3.0 mi ENE 9.2 mph - N/A   Clear
2:53 AM 9.0 °F -4.2 °F 5.0 °F 84% 30.29 in 5.0 mi East 9.2 mph - N/A   Clear
3:53 AM 15.1 °F 4.2 °F 9.0 °F 77% 30.28 in 7.0 mi ESE 8.1 mph - N/A   Clear
4:53 AM 19.9 °F 7.3 °F 12.9 °F 74% 30.26 in 9.0 mi ESE 12.7 mph - N/A   Clear
5:53 AM 21.0 °F 8.6 °F 12.9 °F 71% 30.26 in 9.0 mi ESE 12.7 mph - N/A   Scattered Clouds
6:53 AM 21.0 °F 9.3 °F 14.0 °F 74% 30.26 in 9.0 mi ESE 11.5 mph - N/A   Overcast
7:53 AM 21.9 °F 10.4 °F 14.0 °F 72% 30.24 in 8.0 mi ESE 11.5 mph - N/A   Overcast
8:53 AM 23.0 °F 9.2 °F 15.1 °F 72% 30.18 in 8.0 mi ESE 17.3 mph - N/A   Overcast
9:53 AM 24.1 °F 11.5 °F 16.0 °F 71% 30.18 in 8.0 mi ESE 15.0 mph - N/A   Mostly Cloudy
10:53 AM 26.1 °F 13.6 °F 17.1 °F 69% 30.10 in 8.0 mi ESE 16.1 mph 26.5 mph N/A   Overcast
11:53 AM 28.0 °F 15.7 °F 19.0 °F 69% 30.05 in 9.0 mi ESE 17.3 mph 28.8 mph N/A   Scattered Clouds
12:53 PM 30.0 °F 19.5 °F 19.9 °F 66% 29.99 in 10.0 mi ESE 13.8 mph - N/A   Overcast
1:53 PM 30.9 °F 18.7 °F 21.0 °F 67% 29.87 in 10.0 mi ESE 19.6 mph - N/A   Overcast
2:39 PM 32.0 °F 20.5 °F 21.9 °F 66% 29.75 in 7.0 mi ESE 18.4 mph 27.6 mph 0.00 in Rain Light Freezing Rain
2:53 PM 33.1 °F 20.9 °F 24.1 °F 70% 29.75 in 5.0 mi ESE 21.9 mph 28.8 mph 0.02 in Rain Light Freezing Rain
3:11 PM 33.1 °F 22.6 °F 25.0 °F 72% 29.71 in 3.0 mi SE 16.1 mph - 0.03 in Rain Light Freezing Rain
3:21 PM 34.0 °F 24.6 °F 26.1 °F 73% 29.71 in 2.5 mi SE 13.8 mph - 0.08 in Rain Light Freezing Rain
3:33 PM 34.0 °F 23.8 °F 28.0 °F 79% 29.74 in 1.5 mi SSE 16.1 mph - 0.16 in Rain Light Freezing Rain
3:41 PM 34.0 °F 27.2 °F 28.0 °F 79% 29.75 in 2.5 mi South 8.1 mph - 0.18 in Rain Light Freezing Rain
3:50 PM 33.8 °F 24.8 °F 28.4 °F 81% 29.75 in 4.0 mi South 12.7 mph 19.6 mph 0.19 in Rain Light Freezing Rain
3:53 PM 34.0 °F 25.5 °F 28.0 °F 79% 29.77 in 4.0 mi South 11.5 mph 19.6 mph 0.19 in Rain Light Freezing Rain
4:02 PM 34.0 °F 24.2 °F 28.0 °F 79% 29.73 in 4.0 mi South 15.0 mph - 0.01 in Rain Light Freezing Rain
4:05 PM 34.0 °F 26.0 °F 28.9 °F 82% 29.73 in 2.5 mi South 10.4 mph - 0.02 in Rain Light Freezing Rain
4:17 PM 34.0 °F 26.6 °F 30.0 °F 85% 29.72 in 1.8 mi SSE 9.2 mph - 0.06 in Rain Light Freezing Rain
4:22 PM 34.0 °F 26.6 °F 30.0 °F 85% 29.72 in 2.0 mi SSE 9.2 mph - 0.06 in Rain Light Freezing Rain
4:33 PM 34.0 °F 26.6 °F 30.0 °F 85% 29.73 in 3.0 mi South 9.2 mph - 0.07 in Rain Light Freezing Rain
4:53 PM 34.0 °F 26.6 °F 30.0 °F 85% 29.76 in 4.0 mi SSW 9.2 mph - 0.07 in   Overcast
5:03 PM 34.0 °F 28.0 °F 30.0 °F 85% 29.73 in 2.5 mi SSW 6.9 mph - 0.01 in Rain Light Rain
5:10 PM 34.0 °F 27.2 °F 30.9 °F 89% 29.73 in 2.0 mi SSW 8.1 mph - 0.01 in Rain Light Freezing Rain
5:18 PM 34.0 °F 26.0 °F 30.9 °F 89% 29.73 in 1.8 mi South 10.4 mph - 0.03 in Rain Light Freezing Rain
5:25 PM 34.0 °F 25.5 °F 30.9 °F 89% 29.73 in 2.0 mi South 11.5 mph - 0.03 in Rain Light Freezing Rain
5:53 PM 35.1 °F 25.2 °F 32.0 °F 89% 29.74 in 2.5 mi South 16.1 mph - 0.06 in Rain Light Freezing Rain
6:03 PM 35.1 °F 25.5 °F 32.0 °F 89% 29.71 in 2.5 mi SSW 15.0 mph - 0.00 in   Overcast
6:19 PM 36.0 °F 26.3 °F 32.0 °F 86% 29.72 in 3.0 mi SSW 16.1 mph - 0.00 in   Overcast
6:53 PM 37.0 °F 26.4 °F 32.0 °F 82% 29.77 in 10.0 mi WSW 20.7 mph 29.9 mph 0.00 in   Overcast
7:53 PM 36.0 °F 23.0 °F 30.0 °F 79% 29.82 in 10.0 mi West 29.9 mph 36.8 mph N/A   Overcast
8:22 PM 36.0 °F 24.2 °F 28.9 °F 76% 29.82 in 10.0 mi West 24.2 mph 35.7 mph N/A   Overcast
8:53 PM 36.0 °F 23.9 °F 28.9 °F 76% 29.86 in 10.0 mi West 25.3 mph 33.4 mph N/A   Overcast